GW4405 Weather Reports


time (UTC)temp
F
wind
direction
speed
knots
gust
knots
rain 1hr
in
rain 24hr
in
rain mn
in
humidity
%
barometer
mb
20260509135508 59 351 2.6 3.5 0.00 0.00 0.00 49 1021.8
20260509135005 59 188 5.2 8.7 0.00 0.00 0.00 50 1021.8
20260509134502 59 197 2.6 3.5 0.00 0.00 0.00 50 1021.7
20260509134000 59 209 3.5 6.1 0.00 0.00 0.00 51 1021.5
20260509133456 58 1 4.3 8.7 0.00 0.00 0.00 52 1021.3
20260509132954 58 221 2.6 3.5 0.00 0.00 0.00 53 1021.2
20260509132452 58 190 3.5 5.2 0.00 0.00 0.00 53 1021.2
20260509131949 58 137 1.7 2.6 0.00 0.00 0.00 53 1021.2
20260509131446 58 188 1.7 5.2 0.00 0.00 0.00 54 1021.2
20260509130943 57 75 0.9 1.7 0.00 0.00 0.00 55 1021.0
20260509130438 57 146 2.6 5.2 0.00 0.00 0.00 55 1020.8
20260509125935 57 144 3.5 7.0 0.00 0.00 0.00 54 1020.7
20260509125432 57 212 1.7 2.6 0.00 0.00 0.00 56 1020.6
20260509124928 57 195 1.7 2.6 0.00 0.00 0.00 56 1020.4
20260509124425 57 225 4.3 6.1 0.00 0.00 0.00 56 1020.4
20260509123923 57 121 0.9 1.7 0.00 0.00 0.00 57 1020.4
20260509123420 57 153 0.9 0.9 0.00 0.00 0.00 57 1020.2
20260509122915 57 175 5.2 7.8 0.00 0.00 0.00 57 1020.3
20260509122413 57 217 7.0 8.7 0.00 0.00 0.00 58 1020.1
20260509121909 57 165 7.0 8.7 0.00 0.00 0.00 56 1020.3
20260509121406 57 145 2.6 3.5 0.00 0.00 0.00 58 1020.1
20260509120905 57 180 4.3 6.1 0.00 0.00 0.00 58 1019.9
20260509120402 57 213 3.5 3.5 0.00 0.00 0.00 58 1019.8
20260509115900 57 164 5.2 7.8 0.00 0.00 0.00 57 1019.6
20260509115357 57 176 1.7 1.7 0.00 0.00 0.00 59 1019.5
20260509114855 57 177 0.9 1.7 0.00 0.00 0.00 58 1019.3
20260509114353 56 190 6.1 7.8 0.00 0.00 0.00 58 1019.4
20260509113852 56 190 3.5 6.1 0.00 0.00 0.00 59 1019.3
20260509113349 56 179 3.5 7.8 0.00 0.00 0.00 59 1019.2
20260509112845 56 214 7.0 7.8 0.00 0.00 0.00 59 1019.1
20260509112342 56 193 3.5 6.1 0.00 0.00 0.00 59 1018.9
20260509111840 56 208 4.3 5.2 0.00 0.00 0.00 58 1018.9
20260509111336 56 154 3.5 6.1 0.00 0.00 0.00 59 1018.6
20260509110834 56 152 4.3 6.1 0.00 0.00 0.00 59 1018.4
20260509110330 56 119 7.8 12.2 0.00 0.00 0.00 58 1018.0
20260509105829 56 194 2.6 5.2 0.00 0.00 0.00 59 1018.2
20260509105326 56 192 6.1 7.0 0.00 0.00 0.00 59 1018.1
20260509104823 56 175 4.3 7.8 0.00 0.00 0.00 59 1017.9
20260509104319 56 147 7.8 9.6 0.00 0.00 0.00 60 1017.6
20260509103817 56 206 4.3 7.0 0.00 0.00 0.00 59 1017.6
20260509103314 56 186 2.6 5.2 0.00 0.00 0.00 59 1017.7
20260509102813 56 173 5.2 7.0 0.00 0.00 0.00 59 1017.6
20260509102310 56 209 4.3 6.1 0.00 0.00 0.00 59 1017.3
20260509101806 56 185 6.1 7.8 0.00 0.00 0.00 60 1017.5
20260509101302 56 158 3.5 6.1 0.00 0.00 0.00 60 1017.4
20260509100800 56 183 4.3 6.1 0.00 0.00 0.00 60 1017.4
20260509100257 56 111 1.7 2.6 0.00 0.00 0.00 60 1017.1
20260509095753 56 182 1.7 1.7 0.00 0.00 0.00 61 1017.1
20260509095251 56 168 2.6 3.5 0.00 0.00 0.00 61 1016.7
20260509094748 56 160 5.2 7.0 0.00 0.00 0.00 63 1016.6
20260509094244 56 162 1.7 2.6 0.00 0.00 0.00 62 1016.2
20260509093742 56 181 3.5 5.2 0.00 0.00 0.00 62 1016.3
20260509093239 56 193 2.6 5.2 0.00 0.00 0.00 62 1015.9
20260509092738 56 113 2.6 3.5 0.00 0.00 0.00 62 1016.0
20260509092235 57 174 1.7 1.7 0.00 0.00 0.00 61 1016.0
20260509091733 57 82 1.7 2.6 0.00 0.00 0.00 60 1016.1
20260509091229 57 206 4.3 6.1 0.00 0.00 0.00 60 1016.0
20260509090727 57 120 3.5 5.2 0.00 0.00 0.00 59 1016.0
20260509090224 57 181 0.9 1.7 0.00 0.00 0.00 61 1015.5
20260509085722 57 115 1.7 2.6 0.00 0.00 0.00 61 1015.2
20260509085219 57 148 2.6 2.6 0.00 0.00 0.00 60 1015.2
20260509084715 57 171 0.9 0.9 0.00 0.00 0.00 61 1015.8
20260509084212 57 166 0.9 0.9 0.00 0.00 0.00 61 1015.5
20260509083710 57 192 0.0 1.7 0.00 0.00 0.00 60 1015.2
20260509083206 57 155 0.0 0.0 0.00 0.00 0.00 59 1015.0
20260509082703 58 110 1.7 1.7 0.00 0.00 0.00 59 1014.8
20260509082159 58 139 1.7 1.7 0.00 0.00 0.00 57 1014.5
20260509081657 58 142 1.7 2.6 0.00 0.00 0.00 56 1014.5
20260509081154 58 178 0.9 1.7 0.00 0.00 0.00 56 1014.3
20260509080652 58 70 2.6 3.5 0.00 0.00 0.00 55 1013.7
20260509080150 58 46 0.0 0.9 0.00 0.00 0.00 56 1013.7
20260509075648 58 74 2.6 3.5 0.00 0.00 0.00 57 1013.4
20260509075145 58 71 0.9 0.9 0.00 0.00 0.00 59 1013.4
20260509074642 58 191 1.7 2.6 0.00 0.00 0.00 60 1013.5
20260509074138 58 145 0.9 0.9 0.00 0.00 0.00 61 1013.6
20260509073635 58 165 1.7 2.6 0.00 0.00 0.00 62 1013.4
20260509073131 58 201 0.9 0.9 0.00 0.00 0.00 65 1013.7
20260509072628 57 200 2.6 2.6 0.00 0.00 0.00 67 1013.8
20260509072125 57 114 1.7 2.6 0.00 0.00 0.00 69 1013.7
20260509071622 57 130 0.9 0.9 0.00 0.00 0.00 71 1013.7
20260509071119 57 144 2.6 3.5 0.00 0.00 0.00 71 1013.9
20260509070616 57 115 0.9 1.7 0.00 0.00 0.00 72 1013.8
20260509070112 57 106 0.9 1.7 0.00 0.00 0.00 71 1013.7
20260509065608 57 159 1.7 2.6 0.00 0.00 0.00 71 1013.8
20260509065104 57 152 0.0 0.0 0.00 0.00 0.00 70 1013.8
20260509064602 57 160 3.5 5.2 0.00 0.00 0.00 70 1013.5
20260509064100 57 76 0.9 1.7 0.00 0.00 0.00 69 1013.6
20260509063555 57 141 0.9 0.9 0.00 0.00 0.00 69 1013.7
20260509063053 57 201 0.9 2.6 0.00 0.00 0.00 68 1013.7
20260509062550 57 324 0.9 0.9 0.00 0.00 0.00 67 1013.4
20260509062047 57 83 4.3 6.1 0.00 0.00 0.00 66 1013.0
20260509061543 57 196 1.7 2.6 0.00 0.00 0.00 66 1013.4
20260509061041 57 186 0.0 0.0 0.00 0.00 0.00 67 1013.5
20260509060539 57 209 1.7 2.6 0.00 0.00 0.00 67 1013.2
20260509060034 56 187 3.5 5.2 0.00 0.00 0.00 69 1013.2
20260509055530 56 145 0.9 0.9 0.00 0.00 0.00 70 1013.4
20260509055026 56 144 0.9 0.9 0.00 0.00 0.00 70 1013.6
20260509054523 56 166 0.0 0.9 0.00 0.00 0.00 70 1013.8
20260509054021 57 170 0.0 0.9 0.00 0.00 0.00 70 1013.6
20260509053519 57 196 2.6 2.6 0.00 0.00 0.00 70 1013.6
20260509053016 57 154 0.9 1.7 0.00 0.00 0.00 68 1013.8
20260509052513 57 165 0.9 1.7 0.00 0.00 0.00 68 1014.4
20260509052012 57 165 0.9 0.9 0.00 0.00 0.00 68 1014.0
20260509051509 57 156 0.9 1.7 0.00 0.00 0.00 67 1014.4
20260509051006 57 172 1.7 2.6 0.00 0.00 0.00 67 1014.1
20260509050502 57 201 3.5 5.2 0.00 0.00 0.00 67 1014.3
20260509045959 58 174 1.7 2.6 0.00 0.00 0.00 67 1014.1
20260509045456 58 223 5.2 6.1 0.00 0.00 0.00 66 1013.9
20260509044953 58 117 2.6 2.6 0.00 0.00 0.00 66 1014.0
20260509044451 58 194 3.5 3.5 0.00 0.00 0.00 65 1013.8
20260509043948 58 209 3.5 3.5 0.00 0.00 0.00 65 1014.0
20260509043443 58 189 1.7 1.7 0.00 0.00 0.00 65 1013.7
20260509042939 58 202 4.3 5.2 0.00 0.00 0.00 64 1013.7
20260509042436 59 207 3.5 7.8 0.00 0.00 0.00 64 1013.6
20260509041932 59 189 1.7 2.6 0.00 0.00 0.00 64 1013.7
20260509041429 59 165 0.9 1.7 0.00 0.00 0.00 63 1013.9
20260509040927 59 165 1.7 1.7 0.00 0.00 0.00 63 1014.0
20260509040425 59 192 1.7 1.7 0.00 0.00 0.00 63 1014.0
20260509035922 59 176 2.6 2.6 0.00 0.00 0.00 63 1014.0
20260509035419 59 178 1.7 3.5 0.00 0.00 0.00 63 1014.3
20260509034915 59 200 1.7 3.5 0.00 0.00 0.00 62 1014.5
20260509034413 59 167 0.9 1.7 0.00 0.00 0.00 62 1014.5
20260509033910 59 144 1.7 2.6 0.00 0.00 0.00 62 1014.5
20260509033407 59 173 0.9 0.9 0.00 0.00 0.00 62 1014.6
20260509032903 59 211 3.5 3.5 0.00 0.00 0.00 61 1014.3
20260509032400 59 178 1.7 1.7 0.00 0.00 0.00 62 1014.1
20260509031859 59 187 1.7 1.7 0.00 0.00 0.00 62 1014.1
20260509031356 59 136 1.7 2.6 0.00 0.00 0.00 61 1013.9
20260509030853 59 235 0.9 1.7 0.00 0.00 0.00 61 1013.7
20260509030351 59 179 0.9 0.9 0.00 0.00 0.00 61 1013.4
20260509025848 59 168 1.7 1.7 0.00 0.07 0.07 61 1013.6
20260509025343 59 178 1.7 2.6 0.00 0.07 0.07 61 1013.5
20260509024839 59 208 0.9 0.9 0.00 0.07 0.07 62 1013.7
20260509024335 58 190 2.6 3.5 0.00 0.07 0.07 61 1013.6
20260509023833 58 222 1.7 1.7 0.00 0.07 0.07 64 1013.6
20260509023330 58 201 2.6 2.6 0.00 0.07 0.07 64 1013.3
20260509022826 58 179 0.9 0.9 0.00 0.07 0.07 65 1013.6
20260509022324 57 193 1.7 1.7 0.00 0.07 0.07 66 1013.8
20260509021820 57 195 1.7 1.7 0.00 0.07 0.07 67 1013.6
20260509021318 56 175 0.0 0.0 0.00 0.07 0.07 71 1013.8
20260509020815 56 155 0.0 0.0 0.00 0.07 0.07 72 1013.3
20260509020313 56 188 0.9 0.9 0.00 0.07 0.07 71 1013.3
20260509015811 56 173 0.0 0.0 0.00 0.07 0.07 74 1013.3
20260509015309 56 163 0.0 0.0 0.00 0.07 0.07 76 1013.3
20260509014805 57 160 0.0 0.0 0.00 0.07 0.07 74 1013.3
20260509014302 57 160 0.0 0.0 0.00 0.07 0.07 70 1013.3
20260509013758 57 112 0.0 0.0 0.00 0.07 0.07 72 1013.2
20260509013254 57 153 0.0 0.0 0.00 0.07 0.07 75 1013.2
20260509012751 57 163 0.0 0.0 0.00 0.07 0.07 75 1013.3
20260509012248 58 132 0.0 0.0 0.00 0.07 0.07 73 1013.3
20260509011745 58 122 0.0 0.0 0.00 0.07 0.07 72 1013.3
20260509011242 58 160 0.0 0.0 0.00 0.07 0.07 70 1013.2
20260509010740 58 166 0.0 0.0 0.00 0.07 0.07 67 1013.3
20260509010237 58 147 0.0 0.0 0.00 0.07 0.07 68 1012.8
20260509005734 59 144 0.9 0.9 0.00 0.07 0.07 66 1012.8
20260509005231 59 154 0.0 0.0 0.00 0.07 0.07 68 1012.8
20260509004725 59 130 0.0 0.0 0.00 0.07 0.07 67 1012.6
20260509004223 59 200 0.9 0.9 0.00 0.07 0.07 66 1012.6
20260509003721 59 88 0.0 0.9 0.00 0.07 0.07 67 1012.5
20260509003219 59 167 0.0 0.9 0.00 0.07 0.07 66 1012.6
20260509002716 59 194 0.0 0.9 0.00 0.07 0.07 68 1012.6
20260509002213 59 167 0.0 0.0 0.00 0.07 0.07 66 1012.3
20260509001710 59 194 1.7 1.7 0.00 0.07 0.07 67 1012.4
20260509001206 59 163 0.0 0.0 0.00 0.07 0.07 70 1012.5
20260509000704 59 173 0.0 0.0 0.00 0.07 0.07 70 1012.5
20260509000201 59 167 0.9 0.9 0.00 0.07 0.07 69 1012.5
20260508235658 59 161 1.7 1.7 0.00 0.07 0.07 70 1012.4
20260508235154 59 176 0.9 1.7 0.00 0.07 0.07 71 1012.4
20260508234652 59 144 0.9 1.7 0.00 0.07 0.07 70 1012.5
20260508234148 59 172 0.0 0.0 0.00 0.07 0.07 71 1012.1
20260508233648 59 201 0.9 0.9 0.00 0.07 0.07 71 1012.1
20260508233145 59 174 0.0 0.9 0.00 0.07 0.07 71 1012.3
20260508232642 59 158 2.6 3.5 0.00 0.07 0.07 73 1012.1
20260508232139 59 152 0.0 0.9 0.00 0.07 0.07 73 1011.9
20260508231637 59 184 2.6 2.6 0.00 0.07 0.07 73 1012.0
20260508231133 59 152 0.9 0.9 0.00 0.07 0.07 73 1011.9
20260508230629 59 175 0.9 1.7 0.00 0.07 0.07 73 1011.8
20260508230126 59 159 0.9 0.9 0.00 0.07 0.07 73 1012.1
20260508225625 59 173 0.0 0.0 0.00 0.07 0.07 74 1012.2
20260508225120 59 167 0.0 0.9 0.00 0.07 0.07 71 1012.3
20260508224618 60 158 0.9 0.9 0.00 0.07 0.07 71 1012.7
20260508224115 60 141 0.0 0.0 0.00 0.07 0.07 71 1012.7
20260508223613 60 150 0.0 0.0 0.00 0.07 0.07 71 1013.0
20260508223110 60 149 0.0 0.9 0.00 0.07 0.07 70 1012.9
20260508222607 60 156 0.0 0.0 0.00 0.07 0.07 69 1013.3
20260508222104 60 148 0.0 0.9 0.00 0.07 0.07 70 1013.1
20260508221600 60 168 0.9 0.9 0.00 0.07 0.07 69 1013.2
20260508221057 61 153 0.0 0.0 0.00 0.07 0.07 68 1013.2
20260508220553 61 155 0.0 0.9 0.00 0.07 0.07 67 1012.9
20260508220049 61 181 0.9 0.9 0.00 0.07 0.07 67 1013.0
20260508215547 61 144 0.9 0.9 0.00 0.07 0.07 66 1013.0
20260508215043 61 168 0.0 0.0 0.00 0.07 0.07 66 1012.8
20260508214541 61 184 1.7 2.6 0.00 0.07 0.07 65 1012.9
20260508214037 62 158 0.0 0.9 0.00 0.07 0.07 64 1013.0
20260508213535 62 207 0.9 0.9 0.00 0.07 0.07 63 1013.0
20260508213030 62 143 0.9 1.7 0.00 0.07 0.07 63 1013.1
20260508212527 62 222 3.5 3.5 0.00 0.07 0.07 62 1013.3
20260508212023 62 191 0.9 1.7 0.00 0.07 0.07 63 1013.0
20260508211519 62 125 1.7 3.5 0.00 0.07 0.07 61 1013.4
20260508211015 62 188 3.5 5.2 0.00 0.07 0.07 62 1013.0
20260508210512 62 181 2.6 3.5 0.00 0.07 0.07 62 1012.9
20260508210010 62 165 2.6 3.5 0.00 0.07 0.07 61 1012.8
20260508205506 62 123 0.9 1.7 0.00 0.07 0.07 61 1012.8
20260508205002 62 206 4.3 6.1 0.00 0.07 0.07 61 1012.7
20260508204459 62 179 0.9 1.7 0.00 0.07 0.07 61 1012.7
20260508203955 63 197 4.3 6.1 0.00 0.07 0.07 60 1012.7
20260508203451 63 203 2.6 2.6 0.00 0.07 0.07 59 1012.6
20260508202947 63 138 2.6 5.2 0.00 0.07 0.07 59 1012.5
20260508202444 63 153 3.5 5.2 0.00 0.07 0.07 58 1012.5
20260508201941 63 143 7.8 9.6 0.00 0.07 0.07 57 1012.7
20260508201438 63 228 5.2 7.8 0.00 0.07 0.07 57 1012.5
20260508200935 63 118 6.1 7.8 0.00 0.07 0.07 57 1012.6
20260508200432 63 291 4.3 6.1 0.00 0.07 0.07 57 1012.8
20260508195927 64 178 2.6 2.6 0.00 0.07 0.07 58 1012.5
20260508195425 64 195 2.6 3.5 0.00 0.07 0.07 58 1012.4
20260508194921 64 192 6.1 8.7 0.00 0.07 0.07 55 1012.9
20260508194418 64 176 5.2 7.8 0.00 0.07 0.07 55 1012.6
20260508193915 64 143 3.5 7.0 0.00 0.07 0.07 55 1012.9
20260508193412 64 194 6.1 7.8 0.00 0.07 0.07 57 1012.8
20260508192908 65 130 6.1 8.7 0.00 0.07 0.07 55 1012.8
20260508192405 65 227 2.6 3.5 0.00 0.07 0.07 54 1012.6
20260508191902 65 177 7.0 8.7 0.00 0.07 0.07 54 1012.6
20260508191359 64 185 3.5 6.1 0.00 0.07 0.07 55 1012.4
20260508190856 65 196 3.5 3.5 0.00 0.07 0.07 55 1012.2
20260508190352 66 186 5.2 8.7 0.00 0.07 0.07 52 1012.4
20260508185848 65 161 5.2 7.8 0.00 0.07 0.07 52 1012.4
20260508185346 66 152 4.3 5.2 0.00 0.07 0.07 52 1012.4
20260508184843 65 224 6.1 7.8 0.00 0.07 0.07 52 1012.7
20260508184341 65 194 5.2 6.1 0.00 0.07 0.07 52 1012.6
20260508183837 65 131 4.3 6.1 0.00 0.07 0.07 51 1012.6
20260508183334 66 180 9.6 13.9 0.00 0.07 0.07 50 1012.9
20260508182830 66 183 6.1 8.7 0.00 0.07 0.07 48 1012.9
20260508182327 66 193 6.1 7.8 0.00 0.07 0.07 48 1012.7
20260508181822 67 176 5.2 7.8 0.00 0.07 0.07 50 1012.7
20260508181319 66 174 5.2 7.0 0.00 0.07 0.07 51 1012.8
20260508180816 66 189 4.3 6.1 0.00 0.07 0.07 51 1012.7
20260508180313 67 127 3.5 5.2 0.00 0.07 0.07 50 1012.7
20260508175809 66 147 2.6 2.6 0.00 0.07 0.07 50 1012.6
20260508175306 66 159 3.5 7.0 0.00 0.07 0.07 51 1012.8
20260508174804 66 169 7.0 11.3 0.00 0.07 0.07 50 1012.8
20260508174301 66 214 2.6 2.6 0.00 0.07 0.07 50 1012.6
20260508173752 66 153 4.3 7.0 0.00 0.07 0.07 49 1012.7
20260508173248 66 193 5.2 7.8 0.00 0.07 0.07 48 1012.7
20260508172744 66 193 7.0 9.6 0.00 0.07 0.07 46 1013.0
20260508172242 67 210 4.3 5.2 0.00 0.07 0.07 47 1012.7
20260508171738 67 199 5.2 8.7 0.00 0.07 0.07 48 1013.0
20260508171234 67 189 4.3 6.1 0.00 0.07 0.07 50 1013.0
20260508170731 67 156 5.2 7.8 0.00 0.07 0.07 50 1013.0
20260508170229 68 184 3.5 5.2 0.00 0.07 0.07 49 1013.2
20260508165726 68 177 3.5 3.5 0.00 0.07 0.07 49 1013.3
20260508165223 67 92 1.7 2.6 0.00 0.07 0.07 43 1013.1
20260508164720 68 176 5.2 7.0 0.00 0.07 0.07 44 1013.3
20260508164216 67 129 2.6 2.6 0.00 0.07 0.07 45 1013.3
20260508163714 66 202 7.0 9.6 0.00 0.07 0.07 45 1013.4
20260508163211 67 197 0.0 1.7 0.00 0.07 0.07 56 1013.4
20260508162707 66 56 2.6 3.5 0.00 0.07 0.07 54 1013.5
20260508162204 66 184 2.6 3.5 0.00 0.07 0.07 53 1013.4
20260508161701 66 186 1.7 2.6 0.00 0.07 0.07 54 1013.5
20260508161158 66 215 6.1 8.7 0.00 0.07 0.07 50 1013.5
20260508160656 65 238 5.2 7.8 0.00 0.07 0.07 50 1013.9
20260508160154 64 180 4.3 7.0 0.00 0.07 0.07 50 1013.9
20260508155651 64 189 4.3 7.0 0.00 0.07 0.07 51 1013.9
20260508155148 64 191 5.2 6.1 0.00 0.07 0.07 52 1014.0
20260508154645 64 178 5.2 7.0 0.00 0.07 0.07 53 1014.1
20260508154141 65 146 6.1 7.0 0.00 0.07 0.07 51 1014.3
20260508153638 65 205 4.3 5.2 0.00 0.07 0.07 51 1014.4
20260508153135 65 164 6.1 7.8 0.00 0.07 0.07 52 1014.3
20260508152632 65 190 5.2 6.1 0.00 0.07 0.07 53 1014.3
20260508152127 64 226 1.7 2.6 0.00 0.07 0.07 57 1014.5
20260508151624 65 190 2.6 5.2 0.00 0.07 0.07 51 1014.7
20260508151121 65 194 6.1 7.0 0.00 0.07 0.07 49 1014.7
20260508150618 64 219 0.9 2.6 0.00 0.07 0.07 54 1014.7
20260508150114 65 140 0.9 1.7 0.00 0.07 0.07 52 1014.8
20260508145611 64 195 3.5 3.5 0.00 0.07 0.07 51 1014.8
20260508145107 64 270 0.9 1.7 0.00 0.07 0.07 53 1014.9
20260508144605 64 211 7.8 8.7 0.00 0.07 0.07 52 1014.8
20260508144102 65 160 1.7 1.7 0.00 0.07 0.07 53 1015.0
20260508143559 65 182 3.5 7.8 0.00 0.07 0.07 55 1015.1
20260508143056 65 174 1.7 2.6 0.00 0.07 0.07 53 1015.0
20260508142553 64 196 1.7 5.2 0.00 0.07 0.07 55 1015.1
20260508142049 64 183 4.3 6.1 0.00 0.07 0.07 53 1015.1
20260508141546 64 185 1.7 2.6 0.00 0.07 0.07 52 1015.2
20260508141044 64 170 5.2 7.0 0.00 0.07 0.07 52 1015.1
20260508140541 64 53 2.6 3.5 0.00 0.07 0.07 55 1014.9
20260508140037 64 62 3.5 3.5 0.00 0.07 0.07 52 1015.0
20260508135532 64 126 0.9 1.7 0.00 0.07 0.07 56 1014.8